When you browse on this site, cookies collect data to enhance your experience and personalize the content and advertising you see.
Visit our Privacy Policy to learn more. By continuing to use the site, you agree to this use of cookies and data.

Hourly Weather San Miguel Vindho

Today, 15 July, Wednesday

Time Temperature Precipitation Wind Pressure Humidity
00:00 +15°C° 0 mm 0 mps 594 mmHg 92%
01:00 +14°C° 0 mm 0 mps 594 mmHg 92%
02:00 +14°C° 0 mm 0 mps 594 mmHg 93%
03:00 +14°C° 0 mm 0 mps 594 mmHg 93%
04:00 +14°C° 0 mm 0 mps 593 mmHg 93%
05:00 +13°C° 0 mm 0 mps 593 mmHg 93%
06:00 +15°C° 0 mm 0 mps 594 mmHg 85%
07:00 +17°C° 0 mm 0 mps 596 mmHg 77%
08:00 +19°C° 0 mm 0 mps 597 mmHg 70%
09:00 +23°C° 0.1 mm 1 mps 597 mmHg 64%
10:00 +24°C° 0.1 mm 1 mps 597 mmHg 57%
11:00 +26°C° 0.1 mm 2 mps 598 mmHg 51%
12:00 +26°C° 0.3 mm 3 mps 597 mmHg 50%
13:00 +26°C° 0.3 mm 3 mps 597 mmHg 48%
14:00 +26°C° 0.3 mm 4 mps 597 mmHg 47%
15:00 +25°C° 0.9 mm 4 mps 596 mmHg 53%
16:00 +23°C° 0.9 mm 4 mps 595 mmHg 60%
17:00 +22°C° 0.9 mm 4 mps 595 mmHg 67%
18:00 +21°C° 1.1 mm 3 mps 595 mmHg 72%
19:00 +19°C° 1.1 mm 2 mps 595 mmHg 77%
20:00 +19°C° 1.1 mm 1 mps 595 mmHg 83%
21:00 +18°C° 0.3 mm 1 mps 595 mmHg 85%
22:00 +18°C° 0.3 mm 1 mps 595 mmHg 88%
23:00 +16°C° 0.3 mm 1 mps 595 mmHg 90%

Tomorrow, 16 July, Thursday

Time Temperature Precipitation Wind Pressure Humidity
00:00 +15°C° 0 mm 1 mps 594 mmHg 92%
01:00 +14°C° 0 mm 0 mps 594 mmHg 93%
02:00 +14°C° 0 mm 0 mps 594 mmHg 94%
03:00 +14°C° 0 mm 0 mps 594 mmHg 94%
04:00 +14°C° 0 mm 0 mps 594 mmHg 94%
05:00 +14°C° 0 mm 0 mps 594 mmHg 94%
06:00 +15°C° 0 mm 0 mps 595 mmHg 89%
07:00 +16°C° 0 mm 0 mps 596 mmHg 83%
08:00 +18°C° 0 mm 0 mps 597 mmHg 78%
09:00 +22°C° 0.2 mm 1 mps 597 mmHg 70%
10:00 +23°C° 0.2 mm 2 mps 597 mmHg 62%
11:00 +25°C° 0.2 mm 2 mps 598 mmHg 54%
12:00 +25°C° 0.1 mm 3 mps 598 mmHg 52%
13:00 +26°C° 0.1 mm 4 mps 597 mmHg 49%
14:00 +27°C° 0.1 mm 5 mps 597 mmHg 47%
15:00 +25°C° 1.2 mm 5 mps 596 mmHg 56%
16:00 +22°C° 1.2 mm 5 mps 596 mmHg 65%
17:00 +21°C° 1.2 mm 5 mps 595 mmHg 73%
18:00 +19°C° 1.1 mm 4 mps 595 mmHg 79%
19:00 +18°C° 1.1 mm 3 mps 595 mmHg 84%
20:00 +16°C° 1.1 mm 2 mps 595 mmHg 89%
21:00 +16°C° 0.1 mm 1 mps 595 mmHg 90%
22:00 +15°C° 0.1 mm 1 mps 595 mmHg 92%
23:00 +15°C° 0.1 mm 1 mps 595 mmHg 93%

Day after tomorrow, 17 July, Friday

Time Temperature Precipitation Wind Pressure Humidity
00:00 +15°C° 0 mm 1 mps 595 mmHg 94%
01:00 +13°C° 0 mm 0 mps 594 mmHg 95%
02:00 +13°C° 0 mm 0 mps 594 mmHg 95%
03:00 +13°C° 0 mm 0 mps 594 mmHg 94%
04:00 +13°C° 0 mm 0 mps 594 mmHg 93%
05:00 +13°C° 0 mm 0 mps 595 mmHg 92%
06:00 +14°C° 0 mm 0 mps 595 mmHg 87%
07:00 +15°C° 0 mm 0 mps 596 mmHg 82%
08:00 +16°C° 0 mm 0 mps 596 mmHg 76%
09:00 +20°C° 0.1 mm 1 mps 597 mmHg 69%
10:00 +22°C° 0.1 mm 1 mps 597 mmHg 62%
11:00 +24°C° 0.1 mm 1 mps 598 mmHg 55%
12:00 +24°C° 0.2 mm 2 mps 598 mmHg 50%
13:00 +25°C° 0.2 mm 3 mps 597 mmHg 46%
14:00 +26°C° 0.2 mm 4 mps 597 mmHg 42%
15:00 +23°C° 0.5 mm 4 mps 596 mmHg 50%
16:00 +22°C° 0.5 mm 5 mps 596 mmHg 58%
17:00 +21°C° 0.5 mm 5 mps 595 mmHg 66%
18:00 +19°C° 0.6 mm 4 mps 595 mmHg 72%
19:00 +18°C° 0.6 mm 2 mps 595 mmHg 78%
20:00 +16°C° 0.6 mm 1 mps 595 mmHg 84%
21:00 +16°C° 0.3 mm 1 mps 595 mmHg 84%
22:00 +16°C° 0.3 mm 1 mps 595 mmHg 84%
23:00 +15°C° 0.3 mm 1 mps 595 mmHg 84%

18 July, Saturday

Time Temperature Precipitation Wind Pressure Humidity
00:00 +15°C° 0.1 mm 1 mps 595 mmHg 84%
01:00 +15°C° 0.1 mm 1 mps 595 mmHg 84%
02:00 +14°C° 0.1 mm 0 mps 594 mmHg 83%
03:00 +14°C° 0 mm 0 mps 594 mmHg 83%
04:00 +14°C° 0 mm 0 mps 594 mmHg 83%
05:00 +14°C° 0 mm 0 mps 594 mmHg 83%
06:00 +15°C° 0 mm 0 mps 595 mmHg 78%
07:00 +16°C° 0 mm 0 mps 596 mmHg 72%
08:00 +18°C° 0 mm 0 mps 597 mmHg 66%
09:00 +21°C° 0.2 mm 1 mps 597 mmHg 61%
10:00 +23°C° 0.2 mm 2 mps 597 mmHg 55%
11:00 +24°C° 0.2 mm 3 mps 597 mmHg 49%
12:00 +24°C° 0.3 mm 3 mps 597 mmHg 48%
13:00 +25°C° 0.3 mm 4 mps 597 mmHg 47%
14:00 +25°C° 0.3 mm 5 mps 596 mmHg 46%
15:00 +23°C° 0.4 mm 5 mps 596 mmHg 53%
16:00 +21°C° 0.4 mm 5 mps 595 mmHg 60%
17:00 +20°C° 0.4 mm 6 mps 594 mmHg 67%
18:00 +18°C° 0.1 mm 4 mps 594 mmHg 72%
19:00 +17°C° 0.1 mm 3 mps 594 mmHg 77%
20:00 +15°C° 0.1 mm 2 mps 594 mmHg 82%
21:00 +15°C° 0 mm 1 mps 594 mmHg 85%
22:00 +14°C° 0 mm 1 mps 594 mmHg 88%
23:00 +14°C° 0 mm 1 mps 594 mmHg 90%

19 July, Sunday

Time Temperature Precipitation Wind Pressure Humidity
00:00 +14°C° 0 mm 1 mps 594 mmHg 91%
01:00 +12°C° 0 mm 0 mps 594 mmHg 92%
02:00 +12°C° 0 mm 0 mps 593 mmHg 92%
03:00 +12°C° 0 mm 0 mps 593 mmHg 92%
04:00 +12°C° 0 mm 0 mps 593 mmHg 92%
05:00 +11°C° 0 mm 0 mps 593 mmHg 92%
06:00 +13°C° 0 mm 0 mps 594 mmHg 84%
07:00 +15°C° 0 mm 0 mps 595 mmHg 77%
08:00 +17°C° 0 mm 0 mps 596 mmHg 69%
09:00 +21°C° 0.1 mm 1 mps 597 mmHg 62%
10:00 +23°C° 0.1 mm 2 mps 597 mmHg 55%
11:00 +24°C° 0.1 mm 2 mps 597 mmHg 48%
12:00 +25°C° 0.2 mm 3 mps 597 mmHg 47%
13:00 +25°C° 0.2 mm 4 mps 597 mmHg 46%
14:00 +26°C° 0.2 mm 4 mps 596 mmHg 45%
15:00 +23°C° 0.3 mm 5 mps 596 mmHg 53%
16:00 +22°C° 0.3 mm 5 mps 595 mmHg 60%
17:00 +21°C° 0.3 mm 5 mps 595 mmHg 68%
18:00 +20°C° 0.5 mm 4 mps 595 mmHg 75%
19:00 +18°C° 0.5 mm 3 mps 594 mmHg 83%
20:00 +16°C° 0.5 mm 2 mps 594 mmHg 90%
21:00 +16°C° 0 mm 1 mps 594 mmHg 92%
22:00 +15°C° 0 mm 1 mps 594 mmHg 94%
23:00 +15°C° 0 mm 1 mps 594 mmHg 95%

20 July, Monday

Time Temperature Precipitation Wind Pressure Humidity
00:00 +15°C° 0 mm 1 mps 594 mmHg 95%
01:00 +14°C° 0 mm 0 mps 594 mmHg 95%
02:00 +14°C° 0 mm 0 mps 593 mmHg 94%
03:00 +14°C° 0 mm 0 mps 594 mmHg 93%
04:00 +14°C° 0 mm 0 mps 594 mmHg 92%
05:00 +14°C° 0 mm 0 mps 594 mmHg 90%
06:00 +15°C° 0 mm 0 mps 595 mmHg 86%
07:00 +16°C° 0 mm 0 mps 595 mmHg 82%
08:00 +17°C° 0 mm 0 mps 595 mmHg 77%
09:00 +20°C° 0.1 mm 1 mps 596 mmHg 72%
10:00 +22°C° 0.1 mm 1 mps 596 mmHg 66%
11:00 +23°C° 0.1 mm 2 mps 596 mmHg 61%
12:00 +24°C° 0.8 mm 2 mps 596 mmHg 59%
13:00 +25°C° 0.8 mm 3 mps 596 mmHg 57%
14:00 +25°C° 0.8 mm 4 mps 596 mmHg 55%
15:00 +23°C° 1.9 mm 4 mps 595 mmHg 62%
16:00 +22°C° 1.9 mm 3 mps 594 mmHg 69%
17:00 +20°C° 1.9 mm 3 mps 594 mmHg 76%
18:00 +19°C° 1.3 mm 3 mps 594 mmHg 80%
19:00 +18°C° 1.3 mm 2 mps 594 mmHg 83%
20:00 +18°C° 1.3 mm 1 mps 594 mmHg 86%
21:00 +18°C° 0.3 mm 1 mps 594 mmHg 87%
22:00 +16°C° 0.3 mm 1 mps 594 mmHg 87%
23:00 +16°C° 0.3 mm 1 mps 594 mmHg 88%
Show more